Date String (YYYY-MM-DD hh:mm:ss) UTC,Instrument flags,absolute air pressure of the measurement (hPa),sample flow rate (lpm),inlet stack bypass flow (lpm),air temperature of the measurement (°C),ambient temperature measured by the external sensor (°C),aerosol sample conditioner tube jacket temperature (°C),OPC LED temperature (°C),internal box temperature (°C),relative humidity of the measurement (%),span deviation,mass concentration of particles derived from Lorenz-Mie calculation of OPC scattering (μg/m³),mass concentration of particles derived from Lorenz-Mie calculation of OPC scattering (μg/m³),mass concentration of particles derived from Lorenz-Mie calculation of OPC scattering (μg/m³)
DateTimeUTC,F1_M11,P_M11,Q1_M11,Q2_M11,T1_M11,T2_M11,T3_M11,T4_M11,T5_M11,U1_M11,ZSPAN_M11,X2_M11,X0_M11,X1_M11
2023-09-25 08:00:00,SystemResetWarning,0835.9,5.01,000.00,028.8,027.3,000.0,037.2,030.3,10.8,0000.0,0003.80,0006.67,0003.29
2023-09-25 08:01:00,SystemResetWarning,0835.9,5.00,000.00,028.8,027.3,000.0,037.2,030.3,10.7,0000.0,0003.80,0006.57,0003.29
2023-09-25 08:02:00,SystemResetWarning,0836.0,5.00,000.00,028.8,027.3,000.0,037.2,030.3,10.6,0000.0,0003.77,0007.64,0003.29
2023-09-25 08:03:00,SystemResetWarning,0835.9,5.00,000.00,028.8,027.3,000.0,037.2,030.3,10.6,0000.0,0003.78,0008.10,0003.29
2023-09-25 08:04:00,SystemResetWarning,0835.9,4.99,000.00,028.8,027.3,000.0,037.2,030.3,10.6,0000.0,0003.78,0008.49,0003.30
2023-09-25 08:05:00,SystemResetWarning,0835.9,5.00,000.00,028.8,027.3,000.0,037.2,030.3,10.7,0000.0,0003.81,0008.99,0003.29
2023-09-25 08:06:00,SystemResetWarning,0835.9,5.00,000.00,028.8,027.3,000.0,037.2,030.3,10.5,0000.0,0003.79,0009.09,0003.29
2023-09-25 08:07:00,SystemResetWarning,0835.9,5.00,000.00,028.8,027.3,000.0,037.2,030.3,10.5,0000.0,0003.81,0009.50,0003.30
2023-09-25 08:08:00,SystemResetWarning,0835.9,5.00,000.00,028.8,027.3,000.0,037.2,030.3,10.4,0000.0,0003.87,0009.61,0003.31
2023-09-25 08:09:00,SystemResetWarning,0835.9,5.00,000.00,028.8,027.3,000.0,037.2,030.3,10.5,0000.0,0003.87,0009.60,0003.31
2023-09-25 08:10:00,SystemResetWarning,0835.9,5.01,000.00,028.8,027.3,000.0,037.2,030.3,10.5,0000.0,0003.87,0009.64,0003.32
2023-09-25 08:11:00,SystemResetWarning,0835.9,5.00,000.00,028.8,027.3,000.0,037.2,030.3,10.4,0000.0,0003.86,0009.60,0003.32
2023-09-25 08:12:00,SystemResetWarning,0835.9,4.99,000.00,028.8,027.3,000.0,037.2,030.3,10.5,0000.0,0003.83,0009.52,0003.32
2023-09-25 08:13:00,SystemResetWarning,0835.9,4.99,000.00,028.8,027.3,000.0,037.2,030.3,10.6,0000.0,0003.83,0008.69,0003.32
2023-09-25 08:14:00,SystemResetWarning,0835.9,5.00,000.00,028.8,027.3,000.0,037.2,030.3,10.7,0000.0,0003.80,0008.27,0003.31
2023-09-25 08:15:00,SystemResetWarning,0835.9,5.01,000.00,028.8,027.3,000.0,037.2,030.3,10.4,0000.0,0003.79,0008.22,0003.31
2023-09-25 08:16:00,SystemResetWarning,0835.9,5.01,000.00,028.8,027.3,000.0,037.2,030.3,10.4,0000.0,0003.76,0007.73,0003.30
2023-09-25 08:17:00,SystemResetWarning,0835.9,4.99,000.00,028.8,027.3,000.0,037.2,030.3,10.5,0000.0,0003.79,0007.73,0003.31
2023-09-25 08:18:00,SystemResetWarning,0835.9,5.00,000.00,028.8,027.3,000.0,037.2,030.3,10.5,0000.0,0003.79,0007.27,0003.31
2023-09-25 08:19:00,SystemResetWarning,0835.8,5.00,000.00,028.8,027.3,000.0,037.2,030.3,10.4,0000.0,0003.74,0007.22,0003.30
2023-09-25 08:20:00,SystemResetWarning,0835.8,5.00,000.00,028.8,027.3,000.0,037.2,030.3,10.3,0000.0,0003.71,0007.18,0003.29
2023-09-25 08:21:00,SystemResetWarning,0835.8,4.99,000.00,028.8,027.3,000.0,037.2,030.3,10.4,0000.0,0003.69,0007.08,0003.29
2023-09-25 08:22:00,SystemResetWarning,0835.8,5.00,000.00,028.8,027.3,000.0,037.2,030.2,10.7,0000.0,0003.68,0007.09,0003.29
2023-09-25 08:23:00,SystemResetWarning,0835.8,5.01,000.00,028.8,027.3,000.0,037.2,030.3,10.4,0000.0,0003.70,0007.18,0003.29
2023-09-25 08:24:00,SystemResetWarning,0835.8,5.01,000.00,028.8,027.3,000.0,037.2,030.3,10.3,0000.0,0003.68,0007.21,0003.27
2023-09-25 08:25:00,SystemResetWarning,0835.8,5.00,000.00,028.8,027.3,000.0,037.2,030.3,10.3,0000.0,0003.66,0007.32,0003.26
2023-09-25 08:26:00,SystemResetWarning,0835.8,4.99,000.00,028.8,027.3,000.0,037.2,030.2,10.3,0000.0,0003.66,0007.53,0003.26
2023-09-25 08:27:00,SystemResetWarning,0835.8,5.00,000.00,028.8,027.3,000.0,037.2,030.3,10.5,0000.0,0003.70,0008.02,0003.27
2023-09-25 08:28:00,SystemResetWarning,0835.8,4.99,000.00,028.8,027.3,000.0,037.2,030.3,10.6,0000.0,0003.69,0007.95,0003.28
2023-09-25 08:29:00,SystemResetWarning,0835.8,5.01,000.00,028.8,027.3,000.0,037.2,030.3,10.3,0000.0,0003.63,0007.93,0003.27
2023-09-25 08:30:00,SystemResetWarning,0835.8,5.01,000.00,028.7,027.3,000.0,037.2,030.3,10.3,0000.0,0003.62,0007.85,0003.26
2023-09-25 08:31:00,SystemResetWarning,0835.8,4.99,000.00,028.8,027.2,000.0,037.2,030.2,10.3,0000.0,0003.62,0007.86,0003.26
2023-09-25 08:32:00,SystemResetWarning,0835.8,4.99,000.00,028.8,027.3,000.0,037.2,030.3,10.3,0000.0,0003.62,0007.89,0003.26
2023-09-25 08:33:00,SystemResetWarning,0835.8,4.99,000.00,028.7,027.3,000.0,037.2,030.2,10.3,0000.0,0003.64,0007.90,0003.25
2023-09-25 08:34:00,SystemResetWarning,0835.8,5.02,000.00,028.7,027.3,000.0,037.2,030.2,10.3,0000.0,0003.65,0008.12,0003.26
2023-09-25 08:35:00,SystemResetWarning,0835.7,5.00,000.00,028.7,027.3,000.0,037.2,030.3,10.3,0000.0,0003.65,0008.53,0003.27
2023-09-25 08:36:00,SystemResetWarning,0835.7,4.99,000.00,028.7,027.3,000.0,037.2,030.2,10.3,0000.0,0003.67,0008.52,0003.26
2023-09-25 08:37:00,SystemResetWarning,0835.7,5.00,000.00,028.7,027.2,000.0,037.2,030.2,10.2,0000.0,0003.67,0008.18,0003.25
2023-09-25 08:38:00,SystemResetWarning,0835.6,5.01,000.00,028.7,027.2,000.0,037.2,030.2,10.2,0000.0,0003.64,0007.73,0003.23
2023-09-25 08:39:00,SystemResetWarning,0835.6,5.00,000.00,028.7,027.2,000.0,037.2,030.2,10.3,0000.0,0003.63,0007.74,0003.22
2023-09-25 08:40:00,SystemResetWarning,0835.6,5.00,000.00,028.7,027.2,000.0,037.2,030.2,10.3,0000.0,0003.65,0007.68,0003.21
2023-09-25 08:41:00,SystemResetWarning,0835.6,4.99,000.00,028.7,027.2,000.0,037.2,030.2,10.3,0000.0,0003.64,0007.84,0003.21
2023-09-25 08:42:00,SystemResetWarning,0835.6,5.00,000.00,028.7,027.2,000.0,037.2,030.2,10.3,0000.0,0003.61,0007.76,0003.20
2023-09-25 08:43:00,SystemResetWarning,0835.6,5.00,000.00,028.7,027.2,000.0,037.2,030.2,10.2,0000.0,0003.59,0007.69,0003.20
2023-09-25 08:44:00,SystemResetWarning,0835.6,5.00,000.00,028.7,027.2,000.0,037.2,030.2,10.2,0000.0,0003.59,0008.01,0003.20
2023-09-25 08:45:00,SystemResetWarning,0835.6,5.00,000.00,028.7,027.2,000.0,037.2,030.2,10.3,0000.0,0003.58,0007.80,0003.19
2023-09-25 08:46:00,SystemResetWarning,0835.6,4.99,000.00,028.7,027.2,000.0,037.2,030.2,10.4,0000.0,0003.58,0007.38,0003.19
2023-09-25 08:47:00,SystemResetWarning,0835.6,5.00,000.00,028.7,027.2,000.0,037.2,030.2,10.5,0000.0,0003.57,0007.24,0003.19
2023-09-25 08:48:00,SystemResetWarning,0835.6,5.01,000.00,028.7,027.2,000.0,037.2,030.2,10.4,0000.0,0003.56,0006.83,0003.19
2023-09-25 08:49:00,SystemResetWarning,0835.6,5.01,000.00,028.7,027.2,000.0,037.2,030.2,10.4,0000.0,0003.54,0006.83,0003.18
2023-09-25 08:50:00,SystemResetWarning,0835.6,5.01,000.00,028.7,027.2,000.0,037.2,030.2,10.4,0000.0,0003.54,0006.84,0003.19
2023-09-25 08:51:00,SystemResetWarning,0835.6,5.00,000.00,028.7,027.2,000.0,037.2,030.2,10.5,0000.0,0003.54,0006.78,0003.19
2023-09-25 08:52:00,SystemResetWarning,0835.6,5.00,000.00,028.7,027.2,000.0,037.2,030.2,10.4,0000.0,0003.52,0006.35,0003.18
2023-09-25 08:53:00,SystemResetWarning,0835.6,5.00,000.00,028.7,027.2,000.0,037.1,030.2,10.3,0000.0,0003.54,0006.42,0003.19
2023-09-25 08:54:00,SystemResetWarning,0835.6,5.00,000.00,028.7,027.2,000.0,037.1,030.2,10.4,0000.0,0003.55,0006.57,0003.18
2023-09-25 08:55:00,SystemResetWarning,0835.6,5.00,000.00,028.7,027.2,000.0,037.1,030.2,10.4,0000.0,0003.52,0005.91,0003.17
2023-09-25 08:56:00,SystemResetWarning,0835.6,5.00,000.00,028.7,027.2,000.0,037.1,030.1,10.3,0000.0,0003.54,0005.93,0003.17
2023-09-25 08:57:00,SystemResetWarning,0835.6,5.00,000.00,028.7,027.1,000.0,037.1,030.1,10.2,0000.0,0003.57,0006.00,0003.17
2023-09-25 08:58:00,SystemResetWarning,0835.6,5.00,000.00,028.7,027.1,000.0,037.1,030.1,10.4,0000.0,0003.61,0006.36,0003.18
2023-09-25 08:59:00,SystemResetWarning,0835.6,5.00,000.00,028.7,027.1,000.0,037.1,030.1,10.3,0000.0,0003.61,0006.20,0003.18
